Temp
13 13 13 13 13 12 12 11 11 11 11 11 11 10 10 10 10 10 10 10 9 9 9 10 9 9 9 10 10 10 10 10 10 10 10 10 10 10 10 10 9 9
13 13 13 13 13 12 12 12 11 11 11 11 10 10 10 10 10 10 9 9 9 9 9 9 9 9 10 10 10 10 10 10 10 10 10 10 10 10 10 10 10 10
13 13 13 13 13 12 12 12 11 11 11 11 10 10 10 10 10 9 9 9 9 9 9 9 9 9 10 10 10 10 10 10 10 9 9 9 9 9 9 9 9 9
13 13 13 13 13 12 12 12 11 11 11 11 10 10 10 10 9 9 9 9 9 9 9 9 9 9 9 10 10 10 10 10 9 9 9 9 9 8 9 9 9 9
13 13 13 13 13 12 12 12 11 11 11 10 10 10 10 10 9 9 9 9 9 9 9 9 9 9 9 9 9 10 10 10 10 9 9 9 9 8 8 8 9 9
13 13 13 13 12 12 12 12 11 11 10 10 10 10 9 9 9 9 9 8 8 8 8 8 9 9 9 9 9 9 9 9 10 10 10 10 9 9 9 9 9 9
14 13 13 12 12 12 12 12 11 11 10 10 10 9 9 9 9 9 8 8 8 8 8 8 8 8 8 8 9 8 8 9 9 9 9 9 10 9 9 9 9 9
14 14 13 12 12 12 12 12 11 11 10 10 9 9 9 9 8 8 8 8 8 8 8 8 7 7 7 7 7 7 7 7 7 7 7 8 8 8 9 9 9 10
14 14 13 13 12 12 12 11 11 10 10 9 9 9 8 8 8 8 8 7 7 7 7 7 6 6 6 6 6 6 6 6 6 6 6 6 6 6 7 7 8 8
14 13 13 13 12 12 11 11 11 10 10 9 9 8 8 8 8 8 7 7 7 7 7 6 5 5 5 5 5 5 5 5 5 5 5 5 5 5 5 5 6 7
13 13 13 12 12 11 11 11 10 10 9 9 8 8 8 8 8 7 7 7 7 7 6 5 5 5 4 4 4 4 4 4 4 4 4 4 4 4 4 4 4 4
13 12 12 12 11 11 11 11 10 9 9 8 8 8 8 7 7 7 7 7 7 6 5 5 4 4 4 4 4 4 4 3 3 3 3 3 3 4 3 3 3 2
14 13 12 12 11 11 11 11 10 9 8 8 8 7 7 7 7 7 7 6 6 6 5 4 4 4 4 4 3 3 3 3 3 3 3 3 3 3 3 3 3 2
13 13 13 12 11 11 11 11 10 9 8 8 7 7 7 7 7 6 6 6 5 5 5 4 4 4 4 3 3 3 2 2 2 2 3 3 3 3 3 3 3 2
12 12 13 13 12 11 11 10 9 9 8 7 7 7 7 6 6 6 5 5 5 5 4 4 4 4 3 3 2 2 2 2 2 2 2 2 3 3 3 2 2 2
12 12 12 12 12 11 10 10 9 8 8 7 7 7 6 6 6 5 5 5 5 4 4 4 4 3 3 2 2 2 2 2 2 2 2 2 2 3 3 3 2 2
12 11 11 11 11 10 10 10 9 8 8 7 7 6 6 6 5 5 5 5 5 4 4 4 3 3 3 2 2 2 2 2 2 2 2 2 2 2 2 3 3 3
11 10 9 10 10 10 10 10 9 8 8 7 7 6 6 5 5 5 5 4 4 4 4 3 3 3 2 2 2 2 2 2 2 2 2 2 2 2 2 3 3 3
10 9 9 9 10 10 10 9 9 8 8 7 6 6 5 5 5 5 4 4 4 4 3 3 3 3 2 2 2 2 2 2 2 2 2 2 2 2 2 3 3 3
10 10 9 10 10 9 9 9 8 8 7 6 6 5 5 5 4 4 4 4 3 3 3 3 3 3 2 2 2 2 2 2 2 1 2 2 2 2 2 2 3 3
9 9 9 9 9 9 8 8 8 7 6 6 5 5 5 4 4 4 4 3 3 3 3 3 3 3 2 2 2 2 2 2 2 2 2 2 2 2 2 2 2 2
8 8 8 8 8 8 7 7 6 6 6 5 5 5 5 4 4 4 4 3 3 3 3 3 3 2 2 2 2 2 2 2 2 1 1 2 2 2 2 2 2 2
8 8 7 7 7 7 6 6 6 6 6 5 5 5 4 4 4 4 3 3 3 3 2 2 2 2 2 2 2 1 1 1 1 1 1 1 2 2 2 2 1 1
8 7 7 7 7 7 6 6 6 5 5 5 5 4 4 4 4 4 3 3 2 2 2 2 2 1 1 1 1 1 1 1 1 1 1 1 1 1 1 1 1 0
7 7 7 7 7 6 5 5 5 5 5 5 4 4 4 4 4 3 3 2 2 2 2 2 1 1 1 1 1 0 0 0 0 0 0 1 0 0 0 0 0 -0
6 7 7 7 6 5 4 4 5 5 5 4 4 4 4 4 3 3 3 2 2 2 2 2 1 1 1 1 0 0 -0 -0 -0 -0 -0 -0 -0 -0 -0 -0 -0 -0
Height
1514 1515 1516 1518 1520 1521 1521 1522 1523 1524 1524 1525 1526 1526 1526 1527 1527 1527 1527 1527 1527 1527 1527 1527 1526 1526 1526 1525 1524 1523 1523 1522 1521 1520 1520 1519 1518 1518 1517 1518 1518 1518
1512 1513 1514 1516 1517 1519 1520 1521 1522 1522 1523 1524 1524 1525 1525 1526 1526 1526 1526 1527 1526 1526 1526 1526 1526 1525 1525 1524 1523 1523 1522 1521 1520 1519 1519 1518 1517 1516 1516 1516 1515 1515
1511 1512 1513 1514 1515 1517 1518 1519 1520 1521 1522 1522 1523 1524 1524 1525 1525 1525 1525 1526 1525 1525 1525 1525 1525 1524 1524 1523 1522 1521 1521 1520 1519 1518 1517 1516 1516 1515 1514 1514 1514 1513
1510 1511 1511 1513 1514 1515 1517 1518 1518 1519 1520 1521 1521 1522 1523 1524 1524 1525 1525 1525 1525 1525 1524 1524 1524 1523 1522 1521 1521 1520 1519 1518 1517 1516 1516 1515 1514 1513 1513 1512 1512 1512
1508 1509 1510 1512 1513 1514 1515 1516 1517 1518 1518 1519 1520 1521 1522 1522 1523 1524 1524 1524 1524 1524 1524 1523 1523 1522 1521 1521 1520 1519 1518 1517 1516 1515 1514 1513 1512 1511 1510 1510 1510 1509
1507 1508 1509 1510 1511 1512 1513 1513 1515 1516 1517 1518 1518 1519 1520 1521 1522 1523 1523 1523 1523 1523 1523 1523 1522 1521 1521 1520 1519 1518 1517 1515 1514 1513 1512 1511 1510 1509 1508 1507 1507 1506
1504 1505 1507 1509 1510 1511 1511 1512 1513 1514 1515 1516 1516 1517 1519 1520 1521 1521 1522 1522 1522 1522 1522 1522 1521 1520 1520 1519 1518 1517 1515 1514 1513 1511 1510 1509 1508 1507 1506 1505 1505 1504
1501 1503 1504 1506 1508 1509 1510 1510 1511 1512 1513 1514 1514 1516 1517 1518 1519 1520 1520 1520 1520 1520 1520 1520 1520 1519 1518 1517 1516 1515 1514 1512 1511 1509 1508 1507 1505 1504 1504 1503 1503 1502
1498 1500 1501 1503 1505 1507 1509 1509 1510 1511 1511 1512 1513 1514 1515 1516 1517 1517 1518 1518 1518 1518 1519 1519 1518 1517 1516 1516 1515 1514 1513 1511 1510 1508 1506 1505 1503 1502 1501 1500 1500 1500
1497 1498 1499 1501 1503 1505 1507 1508 1509 1510 1511 1511 1512 1513 1514 1515 1515 1515 1515 1516 1516 1516 1517 1517 1516 1515 1515 1514 1513 1512 1511 1510 1508 1507 1505 1504 1502 1501 1499 1498 1497 1496
1494 1496 1498 1499 1501 1504 1506 1507 1508 1509 1510 1511 1512 1512 1513 1513 1513 1513 1513 1514 1514 1514 1514 1514 1514 1513 1513 1512 1511 1510 1509 1508 1507 1505 1504 1502 1501 1499 1498 1496 1495 1493
1490 1493 1496 1498 1499 1501 1503 1505 1506 1507 1508 1509 1510 1511 1511 1512 1512 1512 1512 1512 1512 1512 1512 1512 1511 1511 1511 1510 1509 1508 1507 1506 1504 1503 1502 1500 1499 1497 1496 1495 1493 1492
1485 1488 1491 1495 1497 1498 1500 1502 1503 1505 1506 1507 1508 1508 1509 1510 1510 1510 1510 1510 1509 1509 1509 1509 1509 1509 1508 1507 1507 1505 1504 1503 1502 1500 1499 1498 1496 1495 1494 1492 1491 1490
1480 1482 1484 1488 1492 1494 1496 1497 1499 1501 1502 1504 1504 1505 1506 1507 1508 1508 1507 1507 1507 1507 1507 1507 1506 1506 1505 1505 1504 1502 1501 1500 1499 1497 1496 1494 1493 1492 1491 1490 1488 1488
1479 1480 1480 1481 1484 1488 1490 1492 1494 1496 1498 1500 1501 1502 1503 1504 1505 1505 1504 1504 1504 1504 1504 1504 1503 1503 1502 1501 1500 1499 1498 1496 1495 1494 1492 1491 1490 1488 1487 1486 1485 1484
1476 1476 1476 1476 1479 1482 1485 1486 1489 1492 1494 1496 1497 1499 1500 1501 1502 1502 1502 1501 1501 1501 1501 1501 1500 1500 1499 1498 1497 1496 1494 1493 1492 1490 1489 1488 1486 1484 1483 1482 1482 1481
1471 1470 1471 1473 1476 1478 1480 1481 1483 1486 1489 1491 1493 1495 1497 1498 1499 1499 1499 1498 1498 1498 1498 1498 1498 1497 1496 1495 1494 1493 1491 1490 1488 1487 1486 1484 1483 1481 1479 1478 1477 1476
1467 1468 1471 1474 1475 1474 1475 1477 1478 1480 1484 1487 1490 1492 1493 1494 1495 1496 1496 1496 1495 1495 1495 1495 1495 1494 1493 1492 1491 1489 1488 1486 1485 1483 1482 1481 1480 1478 1476 1475 1473 1472
1464 1466 1470 1473 1474 1474 1473 1473 1475 1477 1480 1484 1487 1489 1490 1491 1492 1492 1493 1493 1493 1493 1493 1492 1492 1492 1490 1489 1488 1486 1485 1483 1481 1480 1479 1477 1476 1475 1473 1471 1470 1468
1461 1463 1465 1467 1470 1472 1472 1472 1473 1476 1480 1483 1486 1488 1488 1489 1489 1490 1490 1490 1490 1490 1490 1490 1490 1489 1488 1487 1485 1483 1482 1480 1478 1477 1475 1474 1473 1471 1470 1468 1466 1464
1458 1460 1462 1463 1465 1468 1470 1471 1471 1474 1479 1482 1485 1486 1487 1487 1488 1488 1488 1488 1487 1488 1488 1488 1488 1487 1485 1484 1481 1480 1478 1476 1475 1473 1471 1470 1468 1467 1466 1463 1462 1460
1455 1456 1459 1462 1464 1467 1470 1472 1472 1474 1478 1481 1483 1484 1485 1486 1486 1486 1485 1485 1485 1486 1486 1486 1485 1484 1482 1480 1478 1476 1474 1472 1471 1468 1466 1465 1463 1462 1460 1458 1456 1454
1451 1452 1456 1460 1462 1465 1469 1471 1473 1475 1477 1479 1481 1482 1483 1484 1483 1483 1483 1483 1483 1483 1483 1483 1483 1481 1479 1476 1475 1473 1470 1468 1466 1464 1461 1459 1458 1456 1454 1452 1450 1449
1448 1450 1453 1456 1461 1465 1467 1470 1473 1476 1477 1479 1480 1481 1481 1482 1481 1481 1481 1481 1481 1481 1481 1480 1479 1478 1476 1474 1472 1470 1467 1465 1462 1459 1457 1454 1452 1450 1448 1446 1444 1443
1445 1448 1450 1452 1456 1461 1464 1468 1472 1475 1476 1478 1479 1479 1480 1480 1479 1479 1479 1478 1478 1478 1478 1477 1476 1475 1473 1471 1469 1467 1465 1462 1459 1455 1452 1450 1447 1444 1441 1439 1437 1436
1444 1447 1449 1449 1454 1459 1463 1467 1470 1473 1475 1476 1477 1477 1478 1478 1478 1478 1477 1476 1476 1476 1476 1475 1473 1471 1470 1469 1467 1464 1462 1459 1455 1452 1448 1445 1441 1438 1435 1432 1431 1429
Wind_Speed
19 17 16 15 13 11 11 11 11 11 10 9 8 7 6 5 4 2 1 2 3 4 5 4 4 5 6 7 9 10 11 10 9 8 9 12 16 18 20 20 20 20
20 18 17 17 15 13 12 12 12 12 11 10 9 9 8 7 5 3 3 4 5 5 6 5 5 6 7 9 10 12 12 13 12 11 9 9 12 15 18 20 20 21
21 20 19 18 16 14 13 13 13 13 12 12 11 11 10 9 7 6 6 6 7 8 8 7 7 8 9 11 12 13 13 14 13 12 11 10 10 12 14 17 19 20
23 21 20 19 17 14 14 14 15 15 14 14 13 12 11 11 9 8 8 8 9 10 10 9 9 9 11 12 13 14 15 15 15 14 13 12 12 11 12 14 17 19
24 23 22 21 19 15 15 16 16 16 16 16 15 14 13 12 10 9 9 10 10 11 11 10 9 10 11 13 14 15 16 17 17 16 15 14 13 13 13 13 15 17
26 25 25 24 21 17 17 17 17 18 17 17 16 15 14 13 11 11 11 11 12 13 12 11 9 10 11 14 15 17 18 19 19 19 18 17 16 15 15 15 16 16
27 27 27 26 23 20 18 18 18 18 18 18 17 16 15 14 13 12 12 13 14 14 14 12 10 10 12 15 17 19 20 21 21 21 21 21 20 19 17 17 17 18
27 28 28 29 26 22 20 19 19 19 19 19 18 17 15 14 14 14 13 14 15 15 15 13 11 12 14 17 19 20 21 22 22 23 23 23 23 23 22 20 19 19
29 29 30 30 28 24 22 21 20 19 19 19 18 17 16 15 15 14 14 15 15 15 15 13 12 13 16 18 20 22 23 23 23 23 23 24 24 25 25 24 23 21
33 32 32 32 29 25 23 22 20 19 19 18 18 17 17 16 16 15 15 16 15 14 13 12 13 15 17 20 22 23 24 23 23 23 24 25 25 25 26 26 26 24
37 36 34 33 30 26 23 22 20 19 18 18 18 18 17 17 16 16 16 16 14 13 12 12 14 16 18 21 23 24 24 23 24 24 25 26 26 26 26 26 26 26
39 36 35 34 30 25 23 21 20 19 18 18 18 18 18 17 16 16 16 14 12 11 12 13 15 18 20 22 23 23 23 23 24 25 25 26 26 26 26 26 25 25
41 35 33 34 31 26 23 21 19 18 17 18 18 18 17 17 16 15 14 12 11 11 12 15 17 19 21 22 23 23 24 25 26 26 26 26 26 27 27 27 26 25
43 37 33 33 32 28 24 21 20 18 18 18 18 17 17 16 15 13 12 10 11 12 14 17 19 20 21 21 22 24 26 28 29 29 29 28 28 28 27 27 26 26
42 39 35 34 34 30 25 22 20 19 19 19 18 17 16 15 13 11 11 11 12 14 17 18 19 19 19 21 23 26 28 30 31 32 32 31 31 30 28 27 27 27
44 46 41 37 35 31 26 23 21 20 19 18 17 16 14 12 12 12 12 13 14 16 18 18 18 18 20 22 24 27 30 32 33 33 33 33 33 32 31 30 29 29
47 49 44 37 34 30 27 25 23 22 20 18 16 15 13 13 13 14 14 15 15 16 17 17 17 19 22 25 28 30 32 33 34 35 35 35 34 34 34 33 33 33
44 44 38 34 34 33 31 29 26 23 21 19 18 16 15 15 15 15 15 15 15 15 15 17 19 22 25 27 29 30 31 32 33 35 36 36 36 36 36 36 36 36
41 39 35 35 36 34 33 30 26 23 22 20 18 17 16 16 15 15 15 14 14 14 16 18 20 22 23 23 24 26 27 29 31 32 34 35 35 36 37 37 38 39
39 39 37 39 39 35 32 29 25 22 20 18 17 16 16 16 15 14 14 13 14 15 17 18 18 18 18 19 22 24 26 28 30 31 33 34 35 36 37 38 38 39
37 36 38 40 39 35 31 27 24 22 19 17 16 16 16 15 14 14 13 13 14 15 15 14 14 16 18 21 23 25 27 29 30 32 33 34 35 35 36 37 38 39
38 37 38 39 37 33 29 26 22 20 18 16 17 17 16 15 13 13 13 13 14 13 13 14 16 19 21 22 25 27 30 32 33 34 35 35 36 36 36 37 37 38
38 38 38 38 34 30 28 23 18 16 16 16 17 17 15 14 12 11 11 12 13 13 15 18 21 22 22 24 27 30 33 36 37 38 38 38 38 38 37 38 38 38
35 36 36 35 31 29 26 19 14 14 16 16 16 15 13 12 10 9 10 12 13 15 18 22 24 24 24 26 29 32 36 39 40 41 41 40 40 40 39 39 39 39
33 33 34 34 32 30 24 16 14 16 17 15 14 12 10 9 9 9 10 12 14 16 20 23 25 25 25 28 31 34 38 41 42 43 43 42 41 41 41 41 40 40
31 32 34 35 33 26 19 15 17 18 15 13 11 10 8 8 8 9 11 13 15 18 21 24 25 26 27 29 32 35 38 41 43 44 44 44 43 43 43 43 42 41
Wind_Direction
219 221 226 230 230 228 227 232 240 248 251 250 251 250 243 235 228 224 256 319 351 353 352 354 351 346 345 347 351 352 352 348 339 322 297 279 270 265 262 262 263 262
221 222 225 228 228 227 228 231 240 250 255 258 260 259 259 258 261 273 298 320 330 331 330 331 332 336 339 342 344 346 347 345 341 334 320 299 281 272 267 264 263 262
224 224 227 230 229 227 228 231 238 245 251 256 257 258 262 266 272 286 302 314 318 318 319 318 323 332 337 340 340 339 340 340 337 332 326 317 302 285 274 269 266 264
227 228 230 234 232 229 229 231 236 241 244 248 251 254 259 262 268 281 293 303 308 309 309 309 317 330 336 337 337 334 333 332 330 327 321 314 309 302 290 278 271 267
232 232 235 236 233 228 228 230 234 238 241 244 246 248 251 255 262 273 282 290 295 296 295 298 310 324 331 332 331 328 325 323 321 319 315 310 304 300 296 289 280 272
235 236 238 238 234 230 230 230 232 236 240 241 242 244 245 248 254 262 271 278 282 285 285 286 299 317 324 326 325 323 320 319 316 313 311 308 305 301 296 291 285 279
236 237 239 239 235 234 233 231 232 234 237 238 239 240 243 244 247 252 261 268 273 278 278 279 291 314 322 321 322 321 320 318 315 312 310 308 306 304 300 294 286 281
235 237 239 239 235 235 236 233 232 234 234 235 235 237 239 241 244 249 255 261 267 272 272 275 292 313 319 319 320 320 320 318 315 312 310 308 306 304 302 299 291 283
237 236 238 239 235 234 237 235 233 234 235 234 234 234 236 238 242 247 251 256 262 266 267 277 298 311 315 315 317 318 317 314 311 309 307 306 305 304 303 301 297 290
238 238 238 239 235 234 238 239 236 236 236 235 234 234 235 237 239 242 247 254 260 264 271 287 301 307 309 310 312 314 313 309 307 306 304 303 302 302 302 302 300 297
237 238 239 238 235 233 237 239 238 237 236 234 232 233 236 237 238 240 246 254 260 266 280 294 299 300 302 305 308 309 307 306 306 305 304 303 301 300 300 301 300 300
236 237 240 239 234 232 235 237 236 236 234 231 231 233 236 238 239 242 248 254 259 270 286 292 293 295 298 302 303 302 303 304 305 305 304 303 301 299 298 297 296 297
237 233 238 240 236 230 232 234 232 233 231 230 232 233 237 241 242 246 249 254 263 275 283 285 288 293 297 299 300 301 305 306 305 305 304 302 301 300 297 295 291 290
239 232 231 236 236 229 227 228 225 226 227 227 230 233 237 241 243 246 250 255 266 274 278 282 287 291 294 297 301 306 308 308 306 305 303 301 300 298 296 293 290 288
245 239 230 229 229 223 219 220 218 217 219 221 226 229 232 236 239 243 249 255 263 270 276 281 286 290 296 300 303 305 305 304 304 303 301 300 298 297 294 291 289 288
247 244 234 225 221 215 210 210 210 209 212 217 221 223 224 228 232 238 244 252 261 269 275 281 288 294 298 299 300 301 301 301 300 299 299 298 297 296 293 290 288 288
244 240 233 223 214 207 205 205 204 204 209 213 214 214 216 221 227 235 243 252 262 271 279 286 293 297 298 298 299 299 300 299 298 298 297 296 296 295 293 291 290 289
242 234 228 221 212 207 207 206 203 205 208 208 206 206 211 218 226 237 247 259 271 280 288 292 296 298 299 301 302 303 303 301 300 298 296 295 295 294 294 294 293 292
246 235 224 219 216 212 208 204 203 207 207 203 201 205 213 221 229 241 255 271 283 289 292 294 297 300 303 308 311 311 311 308 304 302 299 298 296 295 295 295 294 294
248 240 229 221 217 212 207 204 203 204 200 197 201 210 220 227 235 250 266 281 288 291 293 297 302 306 311 316 319 320 318 314 309 305 302 299 298 296 294 293 293 292
239 236 226 217 211 206 204 201 196 192 190 194 206 217 225 233 245 260 275 285 288 290 294 301 308 313 316 319 323 326 326 322 318 312 307 303 300 297 295 292 291 289
237 232 221 209 203 202 199 193 187 184 187 198 210 219 227 238 253 268 279 284 286 291 301 311 317 319 319 321 326 330 330 328 326 321 316 312 308 304 300 296 293 290
240 234 218 203 197 195 189 184 183 185 193 204 214 221 231 246 260 270 276 280 286 297 310 320 323 322 322 323 326 330 331 330 329 326 322 318 315 311 307 302 298 293
239 228 210 196 191 185 178 174 184 197 204 212 220 229 240 252 260 266 272 281 293 303 311 318 321 322 323 322 324 327 328 328 328 326 323 321 318 314 310 306 302 297
229 214 198 188 184 182 178 178 193 203 209 217 226 237 247 252 258 266 276 288 298 304 310 315 319 321 322 322 322 324 324 325 326 324 323 321 318 314 311 307 304 300
216 202 190 185 183 183 181 183 193 201 211 222 230 237 243 249 260 271 282 293 300 304 310 315 318 320 322 322 322 321 321 322 324 324 323 321 318 315 312 309 306 303